Regional Weather Roundup
Issued by NWS

Home | Current Version | Previous Version | Text Only | Print | Product List | Glossary On
Versions: 1 2 3 4 5 6 7 8 9 10 11 12 13 14 15 16 17 18 19 20 21 22 23 24 25 26 27 28 29 30 31 32 33 34 35 36 37 38 39 40 41 42 43 44 45 46 47 48 49 50
000
ASUS45 KBOU 221707
RWRCO

WEATHER ROUNDUP FOR COLORADO
NATIONAL WEATHER SERVICE DENVER/BOULDER CO
1000 AM MST MON DEC 22 2014

NOTE: "FAIR" INDICATES FEW OR NO CLOUDS BELOW 12000 FEET WITH NO
SIGNIFICANT WEATHER AND/OR OBSTRUCTIONS TO VISIBILITY.

COZ001>005-013-030-031-221800-
...NORTHWEST COLORADO...

CITY           SKY/WX    TMP DP  RH WIND       PRES   REMARKS
CRAIG          PTSUNNY   31  25  78 W14       29.82F WCI  21
HAYDEN         PTSUNNY   30  23  74 W14       29.81S WCI  20
MEEKER         PTSUNNY   33  27  78 SW8       29.84F WCI  26
MOUNT WERNER   NOT AVBL
STEAMBOAT SPGS CLOUDY    29  24  82 W15       29.78F WCI  17
WALDEN         CLOUDY    23  18  80 W6        29.73S WCI  16
$$

COZ006>008-011-221800-
...WEST CENTRAL VALLEYS...

CITY           SKY/WX    TMP DP  RH WIND       PRES   REMARKS
GRAND JUNCTION LGT RAIN  33  33 100 CALM      29.89R FOG
MONTROSE       LGT RAIN  37  33  85 W7        29.90R
EAGLE          CLOUDY    32  28  86 CALM      29.84S
RIFLE          CLOUDY    36  31  82 W6        29.86S
DELTA          CLOUDY    38  36  90 S6        29.88R
NUCLA          RAIN      37  34  87 CALM      29.95R
$$

COZ017>023-064>068-221800-
...SOUTHWEST COLORADO...

CITY           SKY/WX    TMP DP  RH WIND       PRES   REMARKS
DURANGO        CLOUDY    39  32  76 W23       29.84F
CORTEZ         RAIN      39  34  82 W12       29.92S
PAGOSA SPRINGS CLOUDY    33  32  96 N5        29.82F WCI  28
TELLURIDE      NOT AVBL
WOLF CREEK PAS SNOW      19  19 100 MISG      29.83F VSB 1/2
$$

COZ009-010-012-014-032>034-037-058>063-221800-
...CENTRAL COLORADO...

CITY           SKY/WX    TMP DP  RH WIND       PRES   REMARKS
ASPEN          LGT SNOW  27  25  92 N6        29.81R FOG     WCI  20
BUENA VISTA    CLOUDY    28  23  82 CALM      29.75F
COPPER MTN     CLOUDY    18  10  73 W13G29    29.71S WCI   4
BERTHOUD PASS  HVY SNOW   9   1  72 MISG      29.64R VSB<1/4
COTTONWOOD PAS LGT SNOW  28  18  64 W13G21    29.73F WCI  18
GUNNISON       CLOUDY    28  25  86 CALM      29.81S VSB 1/2
KREMMLING      CLOUDY    30  23  74 CALM      29.78S
LEADVILLE      SNOW      19  16  88 NW16      29.72S VSB 1/2 WCI   4
MONARCH PASS   CLOUDY    16  14  93 MISG      29.84S
SALIDA         CLOUDY    32  27  80 MISG      29.82F
SUNLIGHT       CLOUDY   N/A N/A N/A MISG      29.82S
WILKERSON PASS SNOW      18  14  86 NW3       29.74S VSB 1/2
$$

COZ069>075-221800-
...SAN LUIS VALLEY/SANGRE DE CRISTO MOUNTAINS...

CITY           SKY/WX    TMP DP  RH WIND       PRES   REMARKS
ALAMOSA        CLOUDY    34  28  79 E6        29.75F WCI  29
LA VETA PASS   LGT SNOW  27  21  80 SW3       29.75F
SAGUACHE       LGT SNOW  32  28  86 NW3       29.76S
$$

COZ035-036-038>040-221800-
...NORTHERN COLORADO FRONT RANGE...

CITY           SKY/WX    TMP DP  RH WIND       PRES   REMARKS
DENVER INTL AP CLOUDY    31  28  89 SE5       29.72S WCI  26
DMNS CITY PARK   N/A     35  29  80 SW3       29.71F
AURORA         NOT AVBL
FRONT RANGE AP NOT AVBL
ERIE MUNI ARPT   N/A     34  31  91 CALM      29.72S
BOULDER MUN AP CLOUDY    37  21  52 CALM      29.70F
CENTENNIAL     CLOUDY    32  25  75 W7        29.72S WCI  26
BROOMFIELD     PTSUNNY   36  25  64 CALM      29.71S
FORT COLLINS   MOSUNNY   39  19  45 NE7       29.72F
LONGMONT       MOSUNNY   36  30  80 SE3       29.73S
$$

COZ041-046-047-076>085-087-088-221800-
...PIKES PEAK/PALMER DIVIDE AND SOUTHERN FOOTHILLS...

CITY           SKY/WX    TMP DP  RH WIND       PRES   REMARKS
COLO. SPRINGS  PTSUNNY   37  22  54 NW6       29.74F
A. F. ACADEMY  NOT AVBL
ELLICOTT       NOT AVBL
FALCON         CLOUDY    32  20  62 NW6       29.73F WCI  26
FORT CARSON    NOT AVBL
LIMON          PTSUNNY   32  25  75 W5        29.74F WCI  27
MONUMENT HILL  CLOUDY    28  23  80 W5        29.71S WCI  23
TRINIDAD       LGT SNOW  31  30  96 S8        29.79F VSB 3/4 WCI  23
$$

COZ042>045-048>051-090-091-221800-
...NORTHEAST COLORADO...

CITY           SKY/WX    TMP DP  RH WIND       PRES   REMARKS
GREELEY ARPT   MOSUNNY   37  18  44 N10       29.71F
AKRON          SUNNY     33  25  72 W9        29.71S WCI  25
BURLINGTON     MOSUNNY   40  26  57 NW21      29.71F
WRAY           PTSUNNY   40  29  64 W18       29.69S
STERLING       SUNNY     37  30  75 NW12      29.69F
HOLYOKE        PTSUNNY   41  28  60 NW15G23   29.67S
FORT MORGAN    SUNNY     35  22  61 NW18      29.72F WCI  24
$$

COZ086-089-092>099-221800-
...SOUTHEAST COLORADO...

CITY           SKY/WX    TMP DP  RH WIND       PRES   REMARKS
PUEBLO         CLOUDY    39  31  72 SW7       29.76S
LA JUNTA       CLOUDY    41  27  57 W5        29.78S
LAMAR          PTSUNNY   43  26  51 N20       29.75S
SPRINGFIELD      N/A     43  26  51 N23       29.76S
$$



USA.gov is the U.S. government's official web portal to all federal, state and local government web resources and services.